KUIPER-00128 (65957 NORAD) Tracking and Keplerian Element Data

This shows tracking and keplerian element data for the satellite.

Feedback or suggestion? Click here.




ElementValue
Catalog65957
NameKUIPER-00128
Epoch Orbit589
Epoch Day354.25003472
Epoch Year2025
RAAN346.4265
Inclination51.8988
Eccentricity0.000399
Argument of Perigee67.8264
Mean Anonmoly185.8822
Mean Motion15.07302732
Decay Rate-0.00922711
L11 65957U 25228L 25354.25003472 -.00922711 00000+0 -65323-1 0 9996
L22 65957 51.8988 346.4265 0003990 67.8264 185.8822 15.07302732 5893



Live tracking and technical data element details for KUIPER-00128 (NORAD 65957). KUIPER-00128 can be tracked NOW for your location showing map with azimuth and elevation plus other details from your city location.







IsCatalogInMostPopularTable: catalog: 65957, numindb: 5
Update: records affected: 1



GetName: 65957 KUIPER-00128

Hit Count: updated at: Mon, 20 Apr 2026 10:37:23 GMT